Total_Precipitation_Accumulation
1.88 1.83 1.76 1.54 1.39 1.36 1.37 1.36 1.32 1.29 1.19 1.14 1.10 1.14 1.25 1.23 1.24 1.43 1.54 1.58 1.73 1.80 1.74 1.76 1.91 2.01 2.13 2.14 2.16 2.18 2.24 2.23 2.13 1.87 1.53 1.38 1.51 1.55 1.60 1.41 1.36 1.40 1.34
1.52 1.44 1.33 1.27 1.19 1.18 1.19 1.14 1.08 1.11 1.06 1.09 1.09 1.02 1.15 1.27 1.28 1.32 1.33 1.34 1.50 1.62 1.63 1.68 1.69 1.69 1.80 1.93 2.05 2.02 2.10 2.15 2.15 2.04 1.75 1.55 1.58 1.68 1.86 1.80 1.66 1.53 1.47
1.39 1.31 1.23 1.15 1.16 1.15 1.08 1.06 0.94 0.90 0.97 1.05 1.18 1.14 1.10 1.16 1.23 1.23 1.22 1.24 1.28 1.35 1.40 1.48 1.50 1.58 1.70 1.70 1.77 1.85 1.92 1.99 2.14 2.11 1.99 1.88 1.77 1.72 1.82 1.80 1.83 1.92 1.82
1.53 1.40 1.32 1.22 1.15 1.14 1.02 0.93 0.87 0.91 0.98 0.99 0.98 1.07 1.10 1.13 1.18 1.17 1.14 1.13 1.13 1.14 1.27 1.36 1.43 1.49 1.57 1.60 1.61 1.74 1.87 1.97 2.02 2.01 1.95 1.88 1.84 1.84 1.85 1.84 1.92 2.03 2.10
1.24 1.05 0.98 1.01 1.02 0.97 0.94 0.88 0.80 0.78 0.78 0.83 0.83 0.84 0.91 1.01 1.03 1.00 1.01 1.06 1.11 1.13 1.24 1.29 1.33 1.36 1.40 1.46 1.44 1.60 1.75 1.93 2.01 2.03 1.91 1.81 1.74 1.77 1.77 1.77 1.88 2.11 2.15
0.91 0.85 0.85 0.83 0.81 0.80 0.83 0.82 0.76 0.70 0.65 0.68 0.68 0.75 0.78 0.81 0.99 1.01 0.95 0.98 1.05 1.08 1.14 1.19 1.31 1.38 1.34 1.30 1.27 1.33 1.45 1.54 1.72 1.85 1.89 1.78 1.66 1.65 1.77 1.89 1.91 2.07 2.21
0.63 0.61 0.65 0.71 0.70 0.69 0.78 0.82 0.79 0.75 0.70 0.68 0.69 0.74 0.68 0.68 0.84 0.85 0.96 1.08 1.06 1.01 0.98 1.12 1.22 1.28 1.35 1.34 1.24 1.22 1.20 1.23 1.33 1.51 1.62 1.59 1.55 1.57 1.70 1.83 1.94 2.03 1.95
0.56 0.52 0.51 0.57 0.63 0.68 0.75 0.78 0.78 0.76 0.73 0.78 0.78 0.80 0.72 0.66 0.75 0.77 0.91 0.96 0.96 0.92 0.95 1.04 1.16 1.26 1.32 1.36 1.29 1.33 1.27 1.14 1.12 1.18 1.34 1.43 1.44 1.60 1.78 1.96 2.11 2.13 2.00
0.51 0.52 0.52 0.52 0.58 0.63 0.68 0.71 0.72 0.73 0.70 0.75 0.86 0.87 0.77 0.69 0.74 0.77 0.88 0.95 1.00 0.95 0.94 1.00 1.16 1.21 1.40 1.49 1.35 1.38 1.35 1.15 1.09 1.16 1.20 1.29 1.42 1.58 1.78 2.00 2.12 2.15 2.13
0.46 0.51 0.57 0.60 0.59 0.59 0.67 0.77 0.77 0.76 0.77 0.77 0.78 0.75 0.69 0.67 0.73 0.74 0.82 0.83 0.95 1.01 1.04 1.04 1.27 1.33 1.43 1.43 1.33 1.45 1.52 1.35 1.11 1.06 1.13 1.27 1.37 1.53 1.80 1.96 2.21 2.25 2.07
0.50 0.54 0.56 0.56 0.58 0.63 0.69 0.74 0.79 0.77 0.74 0.72 0.70 0.67 0.65 0.65 0.71 0.71 0.75 0.65 0.70 0.80 0.92 1.01 1.00 1.18 1.23 1.29 1.33 1.32 1.47 1.38 1.21 1.27 1.35 1.36 1.47 1.53 1.66 1.81 2.05 2.25 2.20
0.47 0.47 0.49 0.51 0.56 0.62 0.69 0.69 0.72 0.76 0.75 0.72 0.67 0.66 0.67 0.66 0.64 0.65 0.71 0.68 0.72 0.74 0.76 0.86 0.95 1.12 1.15 1.17 1.18 1.20 1.28 1.29 1.29 1.45 1.45 1.32 1.36 1.43 1.49 1.65 1.80 1.92 1.84
0.46 0.48 0.53 0.57 0.61 0.62 0.69 0.71 0.72 0.74 0.76 0.78 0.79 0.76 0.73 0.70 0.64 0.69 0.69 0.69 0.74 0.73 0.77 0.91 0.97 1.05 1.01 0.98 1.07 1.12 1.16 1.30 1.42 1.41 1.38 1.27 1.24 1.30 1.34 1.50 1.64 1.77 1.74
0.55 0.57 0.60 0.62 0.67 0.70 0.71 0.76 0.79 0.80 0.83 0.82 0.80 0.80 0.78 0.76 0.66 0.63 0.63 0.65 0.73 0.75 0.82 0.94 1.00 1.00 0.95 0.97 1.03 1.10 1.17 1.31 1.49 1.35 1.24 1.19 1.19 1.30 1.39 1.42 1.48 1.53 1.68
0.59 0.59 0.64 0.66 0.72 0.78 0.77 0.79 0.84 0.89 0.99 1.00 0.92 0.88 0.85 0.83 0.83 0.86 0.79 0.73 0.78 0.83 0.90 0.99 1.09 1.15 1.10 1.08 1.16 1.21 1.25 1.24 1.29 1.24 1.25 1.31 1.36 1.36 1.41 1.48 1.50 1.48 1.47
0.64 0.64 0.64 0.66 0.71 0.75 0.82 0.84 0.90 0.92 1.01 1.02 1.04 1.00 0.90 0.92 0.97 0.95 0.95 0.90 0.90 0.96 1.04 1.04 1.16 1.31 1.33 1.33 1.37 1.40 1.41 1.37 1.37 1.38 1.38 1.39 1.40 1.38 1.38 1.48 1.57 1.60 1.51
0.63 0.65 0.66 0.66 0.69 0.74 0.77 0.83 0.86 0.85 0.86 0.87 0.89 0.92 0.91 0.90 0.87 0.85 0.90 0.94 0.97 1.02 0.97 1.01 1.23 1.30 1.31 1.32 1.38 1.46 1.43 1.33 1.37 1.40 1.34 1.31 1.31 1.30 1.31 1.36 1.43 1.48 1.46
0.60 0.66 0.70 0.70 0.72 0.75 0.76 0.76 0.78 0.82 0.81 0.75 0.75 0.80 0.84 0.85 0.83 0.84 0.91 0.95 0.98 1.03 1.03 1.20 1.39 1.45 1.42 1.39 1.35 1.30 1.25 1.22 1.23 1.27 1.29 1.27 1.30 1.32 1.31 1.29 1.28 1.32 1.35
0.59 0.60 0.65 0.71 0.72 0.71 0.71 0.73 0.72 0.73 0.74 0.72 0.73 0.77 0.83 0.83 0.84 0.85 0.88 0.89 0.97 1.04 1.11 1.24 1.37 1.48 1.45 1.35 1.28 1.19 1.12 1.11 1.09 1.14 1.21 1.22 1.23 1.25 1.23 1.22 1.19 1.23 1.25
0.58 0.70 0.72 0.70 0.67 0.68 0.70 0.72 0.73 0.77 0.80 0.79 0.79 0.83 0.85 0.82 0.82 0.88 0.90 0.92 1.00 1.06 1.09 1.13 1.16 1.17 1.15 1.15 1.18 1.16 1.12 1.11 1.07 1.06 1.12 1.14 1.21 1.30 1.29 1.22 1.20 1.19 1.18
0.62 0.72 0.76 0.69 0.63 0.64 0.69 0.74 0.73 0.73 0.76 0.80 0.80 0.84 0.91 0.83 0.85 0.90 0.91 0.92 0.99 1.04 1.06 1.07 1.09 1.11 1.10 1.10 1.14 1.16 1.15 1.10 1.07 1.08 1.13 1.16 1.16 1.21 1.30 1.33 1.27 1.24 1.23
0.62 0.69 0.72 0.69 0.65 0.68 0.74 0.75 0.75 0.71 0.68 0.69 0.70 0.76 0.85 0.82 0.87 0.90 0.92 0.95 0.98 1.01 1.01 1.01 0.98 1.03 1.10 1.10 1.13 1.18 1.21 1.20 1.17 1.21 1.25 1.25 1.25 1.22 1.23 1.27 1.28 1.27 1.27
0.60 0.61 0.64 0.68 0.71 0.79 0.80 0.78 0.75 0.72 0.70 0.68 0.70 0.72 0.75 0.76 0.81 0.85 0.89 0.93 0.96 0.98 1.00 1.00 0.95 0.95 0.98 0.99 1.01 1.08 1.13 1.15 1.21 1.32 1.41 1.43 1.44 1.41 1.37 1.33 1.30 1.35 1.36
0.60 0.65 0.68 0.70 0.72 0.74 0.76 0.78 0.78 0.76 0.75 0.72 0.72 0.75 0.78 0.77 0.78 0.81 0.82 0.83 0.85 0.86 0.87 0.91 0.91 0.89 0.91 0.96 0.99 1.00 1.00 1.05 1.12 1.22 1.35 1.48 1.50 1.49 1.51 1.52 1.46 1.42 1.44
0.66 0.68 0.71 0.75 0.74 0.76 0.78 0.78 0.79 0.80 0.79 0.80 0.80 0.79 0.80 0.79 0.80 0.82 0.79 0.77 0.78 0.80 0.82 0.85 0.87 0.85 0.86 0.89 0.94 1.00 1.16 1.18 1.12 1.12 1.18 1.34 1.44 1.46 1.46 1.49 1.54 1.55 1.55
0.75 0.76 0.75 0.78 0.83 0.84 0.86 0.85 0.83 0.83 0.84 0.83 0.83 0.84 0.84 0.87 0.88 0.91 0.90 0.90 0.90 0.86 0.86 0.88 0.89 0.91 0.92 0.90 0.92 1.04 1.13 1.08 1.06 1.13 1.15 1.19 1.29 1.37 1.43 1.48 1.48 1.55 1.61